owner,sensor,date,latitude,longitude,vertical_datum,direction_of_sea_water_velocity,sea_water_speed,upward_sea_water_velocity,qcFlag 
ADCP,ioos:station:wmo:42373:1,2009-03-01T00:11:00Z,27.3540,-94.6250,79.0,118.0,15.9,-9999.0,'11111222,11111222,99999999' 
ADCP,ioos:station:wmo:42373:1,2009-03-01T00:31:00Z,27.3540,-94.6250,79.0,119.0,16.6,-9999.0,'11111222,11111222,99999999' 
ADCP,ioos:station:wmo:42373:1,2009-03-01T00:51:00Z,27.3540,-94.6250,79.0,129.0,13.5,-9999.0,'11111222,11111222,99999999' 
ADCP,ioos:station:wmo:42373:1,2009-03-01T01:11:00Z,27.3540,-94.6250,79.0,139.0,13.7,-9999.0,'11111222,11111222,99999999' 
ADCP,ioos:station:wmo:42373:1,2009-03-01T01:31:00Z,27.3540,-94.6250,79.0,140.0,14.0,-9999.0,'11111222,11111222,99999999' 
ADCP,ioos:station:wmo:42373:1,2009-03-01T01:51:00Z,27.3540,-94.6250,79.0,130.0,14.3,-9999.0,'11111222,11111222,99999999' 
ADCP,ioos:station:wmo:42373:1,2009-03-01T02:11:00Z,27.3540,-94.6250,79.0,134.0,14.1,-9999.0,'11111222,11111222,99999999' 
ADCP,ioos:station:wmo:42373:1,2009-03-01T02:31:00Z,27.3540,-94.6250,79.0,145.0,13.3,-9999.0,'11111222,11111222,99999999' 
ADCP,ioos:station:wmo:42373:1,2009-03-01T02:51:00Z,27.3540,-94.6250,79.0,144.0,11.9,-9999.0,'11111222,11111222,99999999' 
ADCP,ioos:station:wmo:42373:1,2009-03-01T03:11:00Z,27.3540,-94.6250,79.0,147.0,12.4,-9999.0,'11111222,11111222,99999999' 
ADCP,ioos:station:wmo:42373:1,2009-03-01T03:31:00Z,27.3540,-94.6250,79.0,150.0,12.8,-9999.0,'11111222,11111222,99999999' 
ADCP,ioos:station:wmo:42373:1,2009-03-01T03:51:00Z,27.3540,-94.6250,79.0,165.0,11.5,-9999.0,'11111222,11111222,99999999' 
ADCP,ioos:station:wmo:42373:1,2009-03-01T04:11:00Z,27.3540,-94.6250,79.0,143.0,11.6,-9999.0,'11111222,11111222,99999999' 
ADCP,ioos:station:wmo:42373:1,2009-03-01T04:31:00Z,27.3540,-94.6250,79.0,177.0,10.6,-9999.0,'11111222,11111222,99999999' 
ADCP,ioos:station:wmo:42373:1,2009-03-01T04:51:00Z,27.3540,-94.6250,79.0,140.0,11.3,-9999.0,'11111222,11111222,99999999' 
ADCP,ioos:station:wmo:42373:1,2009-03-01T05:11:00Z,27.3540,-94.6250,79.0,139.0,9.4,-9999.0,'11133222,11111222,99999999' 
ADCP,ioos:station:wmo:42373:1,2009-03-01T05:31:00Z,27.3540,-94.6250,79.0,144.0,12.4,-9999.0,'11111222,11111222,99999999' 
ADCP,ioos:station:wmo:42373:1,2009-03-01T05:51:00Z,27.3540,-94.6250,79.0,185.0,8.4,-9999.0,'11133222,11111222,99999999' 
ADCP,ioos:station:wmo:42373:1,2009-03-01T06:11:00Z,27.3540,-94.6250,79.0,153.0,9.5,-9999.0,'11133222,11111222,99999999' 
ADCP,ioos:station:wmo:42373:1,2009-03-01T06:31:00Z,27.3540,-94.6250,79.0,139.0,7.3,-9999.0,'11133222,11111222,99999999' 
ADCP,ioos:station:wmo:42373:1,2009-03-01T06:51:00Z,27.3540,-94.6250,79.0,141.0,8.8,-9999.0,'11133222,11111222,99999999' 
ADCP,ioos:station:wmo:42373:1,2009-03-01T07:11:00Z,27.3540,-94.6250,79.0,180.0,6.2,-9999.0,'11133222,11111222,99999999' 
ADCP,ioos:station:wmo:42373:1,2009-03-01T07:31:00Z,27.3540,-94.6250,79.0,118.0,8.7,-9999.0,'11133222,11111222,99999999' 
ADCP,ioos:station:wmo:42373:1,2009-03-01T07:51:00Z,27.3540,-94.6250,79.0,159.0,4.7,-9999.0,'11133222,11111222,99999999' 
ADCP,ioos:station:wmo:42373:1,2009-03-01T08:11:00Z,27.3540,-94.6250,79.0,127.0,5.8,-9999.0,'11133222,11111222,99999999' 
ADCP,ioos:station:wmo:42373:1,2009-03-01T08:31:00Z,27.3540,-94.6250,79.0,137.0,5.9,-9999.0,'11133222,11111222,99999999' 
ADCP,ioos:station:wmo:42373:1,2009-03-01T08:51:00Z,27.3540,-94.6250,79.0,114.0,4.2,-9999.0,'11133222,11111222,99999999' 
ADCP,ioos:station:wmo:42373:1,2009-03-01T09:11:00Z,27.3540,-94.6250,79.0,118.0,3.8,-9999.0,'11133222,11111222,99999999' 
ADCP,ioos:station:wmo:42373:1,2009-03-01T09:31:00Z,27.3540,-94.6250,79.0,103.0,7.2,-9999.0,'11133222,11111222,99999999' 
ADCP,ioos:station:wmo:42373:1,2009-03-01T09:51:00Z,27.3540,-94.6250,79.0,180.0,3.3,-9999.0,'11133222,11111222,99999999' 
ADCP,ioos:station:wmo:42373:1,2009-03-01T10:11:00Z,27.3540,-94.6250,79.0,77.0,5.5,-9999.0,'11133222,11111222,99999999' 
ADCP,ioos:station:wmo:42373:1,2009-03-01T10:31:00Z,27.3540,-94.6250,79.0,77.0,9.2,-9999.0,'11133222,11111222,99999999' 
ADCP,ioos:station:wmo:42373:1,2009-03-01T10:51:00Z,27.3540,-94.6250,79.0,98.0,6.8,-9999.0,'11133222,11111222,99999999' 
ADCP,ioos:station:wmo:42373:1,2009-03-01T11:11:00Z,27.3540,-94.6250,79.0,79.0,2.0,-9999.0,'11133222,11111222,99999999' 
ADCP,ioos:station:wmo:42373:1,2009-03-01T11:31:00Z,27.3540,-94.6250,79.0,70.0,10.3,-9999.0,'11111222,11111222,99999999' 
ADCP,ioos:station:wmo:42373:1,2009-03-01T11:51:00Z,27.3540,-94.6250,79.0,80.0,9.4,-9999.0,'11133222,11111222,99999999' 
ADCP,ioos:station:wmo:42373:1,2009-03-01T12:11:00Z,27.3540,-94.6250,79.0,79.0,10.3,-9999.0,'11111222,11111222,99999999' 
ADCP,ioos:station:wmo:42373:1,2009-03-01T12:31:00Z,27.3540,-94.6250,79.0,79.0,10.5,-9999.0,'11111222,11111222,99999999' 
ADCP,ioos:station:wmo:42373:1,2009-03-01T12:51:00Z,27.3540,-94.6250,79.0,88.0,8.3,-9999.0,'11133222,11111222,99999999' 
ADCP,ioos:station:wmo:42373:1,2009-03-01T13:11:00Z,27.3540,-94.6250,79.0,76.0,11.9,-9999.0,'11111222,11111222,99999999' 
ADCP,ioos:station:wmo:42373:1,2009-03-01T13:31:00Z,27.3540,-94.6250,79.0,57.0,6.8,-9999.0,'11133222,11111222,99999999' 
ADCP,ioos:station:wmo:42373:1,2009-03-01T13:51:00Z,27.3540,-94.6250,79.0,61.0,13.7,-9999.0,'11111222,11111222,99999999' 
ADCP,ioos:station:wmo:42373:1,2009-03-01T14:11:00Z,27.3540,-94.6250,79.0,89.0,9.1,-9999.0,'11133222,11111222,99999999' 
ADCP,ioos:station:wmo:42373:1,2009-03-01T14:31:00Z,27.3540,-94.6250,79.0,68.0,12.7,-9999.0,'11111222,11111222,99999999' 
ADCP,ioos:station:wmo:42373:1,2009-03-01T14:51:00Z,27.3540,-94.6250,79.0,67.0,15.0,-9999.0,'11111222,11111222,99999999' 
ADCP,ioos:station:wmo:42373:1,2009-03-01T15:11:00Z,27.3540,-94.6250,79.0,71.0,12.7,-9999.0,'11111222,11111222,99999999' 
ADCP,ioos:station:wmo:42373:1,2009-03-01T15:31:00Z,27.3540,-94.6250,79.0,71.0,14.6,-9999.0,'11111222,11111222,99999999' 
ADCP,ioos:station:wmo:42373:1,2009-03-01T15:51:00Z,27.3540,-94.6250,79.0,59.0,14.5,-9999.0,'11111222,11111222,99999999' 
ADCP,ioos:station:wmo:42373:1,2009-03-01T16:11:00Z,27.3540,-94.6250,79.0,70.0,15.5,-9999.0,'11111222,11111222,99999999' 
ADCP,ioos:station:wmo:42373:1,2009-03-01T16:31:00Z,27.3540,-94.6250,79.0,67.0,15.6,-9999.0,'11111222,11111222,99999999' 
ADCP,ioos:station:wmo:42373:1,2009-03-01T16:51:00Z,27.3540,-94.6250,79.0,66.0,16.5,-9999.0,'11111222,11111222,99999999' 
ADCP,ioos:station:wmo:42373:1,2009-03-01T17:11:00Z,27.3540,-94.6250,79.0,66.0,17.4,-9999.0,'11111222,11111222,99999999' 
ADCP,ioos:station:wmo:42373:1,2009-03-01T17:31:00Z,27.3540,-94.6250,79.0,68.0,17.8,-9999.0,'11111222,11111222,99999999' 
ADCP,ioos:station:wmo:42373:1,2009-03-01T17:51:00Z,27.3540,-94.6250,79.0,69.0,16.4,-9999.0,'11111222,11111222,99999999' 
ADCP,ioos:station:wmo:42373:1,2009-03-01T18:11:00Z,27.3540,-94.6250,79.0,65.0,16.0,-9999.0,'11111222,11111222,99999999' 
ADCP,ioos:station:wmo:42373:1,2009-03-01T18:31:00Z,27.3540,-94.6250,79.0,64.0,17.7,-9999.0,'11111222,11111222,99999999' 
ADCP,ioos:station:wmo:42373:1,2009-03-01T18:51:00Z,27.3540,-94.6250,79.0,62.0,18.3,-9999.0,'11111222,11111222,99999999' 
ADCP,ioos:station:wmo:42373:1,2009-03-01T19:11:00Z,27.3540,-94.6250,79.0,66.0,17.2,-9999.0,'11111222,11111222,99999999' 
ADCP,ioos:station:wmo:42373:1,2009-03-01T19:31:00Z,27.3540,-94.6250,79.0,66.0,20.1,-9999.0,'11111222,11111222,99999999' 
ADCP,ioos:station:wmo:42373:1,2009-03-01T19:51:00Z,27.3540,-94.6250,79.0,67.0,17.9,-9999.0,'11111222,11111222,99999999' 
ADCP,ioos:station:wmo:42373:1,2009-03-01T20:11:00Z,27.3540,-94.6250,79.0,69.0,20.5,-9999.0,'11111222,11111222,99999999' 
ADCP,ioos:station:wmo:42373:1,2009-03-01T20:31:00Z,27.3540,-94.6250,79.0,69.0,18.6,-9999.0,'11111222,11111222,99999999' 
ADCP,ioos:station:wmo:42373:1,2009-03-01T20:51:00Z,27.3540,-94.6250,79.0,68.0,19.8,-9999.0,'11111222,11111222,99999999' 
ADCP,ioos:station:wmo:42373:1,2009-03-01T21:11:00Z,27.3540,-94.6250,79.0,69.0,18.7,-9999.0,'11111222,11111222,99999999' 
ADCP,ioos:station:wmo:42373:1,2009-03-01T21:31:00Z,27.3540,-94.6250,79.0,71.0,17.7,-9999.0,'11111222,11111222,99999999' 
ADCP,ioos:station:wmo:42373:1,2009-03-01T21:51:00Z,27.3540,-94.6250,79.0,74.0,18.7,-9999.0,'11111222,11111222,99999999' 
ADCP,ioos:station:wmo:42373:1,2009-03-01T22:11:00Z,27.3540,-94.6250,79.0,70.0,18.4,-9999.0,'11111222,11111222,99999999' 
ADCP,ioos:station:wmo:42373:1,2009-03-01T22:31:00Z,27.3540,-94.6250,79.0,75.0,18.2,-9999.0,'11111222,11111222,99999999' 
ADCP,ioos:station:wmo:42373:1,2009-03-01T22:51:00Z,27.3540,-94.6250,79.0,79.0,16.9,-9999.0,'11111222,11111222,99999999' 
ADCP,ioos:station:wmo:42373:1,2009-03-01T23:11:00Z,27.3540,-94.6250,79.0,78.0,19.3,-9999.0,'11111222,11111222,99999999' 
ADCP,ioos:station:wmo:42373:1,2009-03-01T23:31:00Z,27.3540,-94.6250,79.0,80.0,16.5,-9999.0,'11111222,11111222,99999999' 
ADCP,ioos:station:wmo:42373:1,2009-03-01T23:51:00Z,27.3540,-94.6250,79.0,83.0,16.3,-9999.0,'11111222,11111222,99999999' 
ADCP,ioos:station:wmo:42373:1,2009-03-02T00:11:00Z,27.3540,-94.6250,79.0,83.0,16.6,-9999.0,'11111222,11111222,99999999' 
ADCP,ioos:station:wmo:42373:1,2009-03-02T00:31:00Z,27.3540,-94.6250,79.0,84.0,17.4,-9999.0,'11111222,11111222,99999999' 
ADCP,ioos:station:wmo:42373:1,2009-03-02T00:51:00Z,27.3540,-94.6250,79.0,83.0,16.3,-9999.0,'11111222,11111222,99999999' 
ADCP,ioos:station:wmo:42373:1,2009-03-02T01:11:00Z,27.3540,-94.6250,79.0,88.0,17.0,-9999.0,'11111222,11111222,99999999' 
ADCP,ioos:station:wmo:42373:1,2009-03-02T01:31:00Z,27.3540,-94.6250,79.0,88.0,16.1,-9999.0,'11111222,11111222,99999999' 
ADCP,ioos:station:wmo:42373:1,2009-03-02T01:51:00Z,27.3540,-94.6250,79.0,91.0,15.7,-9999.0,'11111222,11111222,99999999' 
ADCP,ioos:station:wmo:42373:1,2009-03-02T02:11:00Z,27.3540,-94.6250,79.0,92.0,13.9,-9999.0,'11111222,11111222,99999999' 
ADCP,ioos:station:wmo:42373:1,2009-03-02T02:31:00Z,27.3540,-94.6250,79.0,90.0,14.7,-9999.0,'11111222,11111222,99999999' 
ADCP,ioos:station:wmo:42373:1,2009-03-02T02:51:00Z,27.3540,-94.6250,79.0,96.0,14.1,-9999.0,'11111222,11111222,99999999' 
ADCP,ioos:station:wmo:42373:1,2009-03-02T03:11:00Z,27.3540,-94.6250,79.0,99.0,14.5,-9999.0,'11111222,11111222,99999999' 
ADCP,ioos:station:wmo:42373:1,2009-03-02T03:31:00Z,27.3540,-94.6250,79.0,96.0,12.5,-9999.0,'11111222,11111222,99999999' 
ADCP,ioos:station:wmo:42373:1,2009-03-02T03:51:00Z,27.3540,-94.6250,79.0,95.0,12.7,-9999.0,'11111222,11111222,99999999' 
ADCP,ioos:station:wmo:42373:1,2009-03-02T04:11:00Z,27.3540,-94.6250,79.0,101.0,12.8,-9999.0,'11111222,11111222,99999999' 
ADCP,ioos:station:wmo:42373:1,2009-03-02T04:31:00Z,27.3540,-94.6250,79.0,109.0,8.6,-9999.0,'11133222,11111222,99999999' 
ADCP,ioos:station:wmo:42373:1,2009-03-02T04:51:00Z,27.3540,-94.6250,79.0,97.0,11.5,-9999.0,'11111222,11111222,99999999' 
ADCP,ioos:station:wmo:42373:1,2009-03-02T05:11:00Z,27.3540,-94.6250,79.0,105.0,11.3,-9999.0,'11111222,11111222,99999999' 
ADCP,ioos:station:wmo:42373:1,2009-03-02T05:31:00Z,27.3540,-94.6250,79.0,99.0,10.0,-9999.0,'11111222,11111222,99999999' 
ADCP,ioos:station:wmo:42373:1,2009-03-02T05:51:00Z,27.3540,-94.6250,79.0,106.0,8.5,-9999.0,'11133222,11111222,99999999' 
ADCP,ioos:station:wmo:42373:1,2009-03-02T06:11:00Z,27.3540,-94.6250,79.0,104.0,7.8,-9999.0,'11133222,11111222,99999999' 
ADCP,ioos:station:wmo:42373:1,2009-03-02T06:31:00Z,27.3540,-94.6250,79.0,101.0,9.8,-9999.0,'11133222,11111222,99999999' 
ADCP,ioos:station:wmo:42373:1,2009-03-02T06:51:00Z,27.3540,-94.6250,79.0,120.0,4.8,-9999.0,'11133222,11111222,99999999' 
ADCP,ioos:station:wmo:42373:1,2009-03-02T07:11:00Z,27.3540,-94.6250,79.0,91.0,6.6,-9999.0,'11133222,11111222,99999999' 
ADCP,ioos:station:wmo:42373:1,2009-03-02T07:31:00Z,27.3540,-94.6250,79.0,87.0,8.6,-9999.0,'11133222,11111222,99999999' 
ADCP,ioos:station:wmo:42373:1,2009-03-02T07:51:00Z,27.3540,-94.6250,79.0,101.0,6.6,-9999.0,'11133222,11111222,99999999' 
ADCP,ioos:station:wmo:42373:1,2009-03-02T08:11:00Z,27.3540,-94.6250,79.0,89.0,4.1,-9999.0,'11133222,11111222,99999999' 
ADCP,ioos:station:wmo:42373:1,2009-03-02T08:31:00Z,27.3540,-94.6250,79.0,83.0,4.8,-9999.0,'11133222,11111222,99999999' 
ADCP,ioos:station:wmo:42373:1,2009-03-02T08:51:00Z,27.3540,-94.6250,79.0,81.0,7.4,-9999.0,'11133222,11111222,99999999' 
ADCP,ioos:station:wmo:42373:1,2009-03-02T09:11:00Z,27.3540,-94.6250,79.0,83.0,4.3,-9999.0,'11133222,11111222,99999999' 
ADCP,ioos:station:wmo:42373:1,2009-03-02T09:31:00Z,27.3540,-94.6250,79.0,80.0,5.0,-9999.0,'11133222,11111222,99999999' 
ADCP,ioos:station:wmo:42373:1,2009-03-02T09:51:00Z,27.3540,-94.6250,79.0,59.0,1.2,-9999.0,'11133222,11111222,99999999' 
ADCP,ioos:station:wmo:42373:1,2009-03-02T10:11:00Z,27.3540,-94.6250,79.0,45.0,4.1,-9999.0,'11133222,11111222,99999999' 
ADCP,ioos:station:wmo:42373:1,2009-03-02T10:31:00Z,27.3540,-94.6250,79.0,65.0,4.4,-9999.0,'11133222,11111222,99999999' 
ADCP,ioos:station:wmo:42373:1,2009-03-02T10:51:00Z,27.3540,-94.6250,79.0,5.0,4.9,-9999.0,'11133222,11111222,99999999' 
ADCP,ioos:station:wmo:42373:1,2009-03-02T11:11:00Z,27.3540,-94.6250,79.0,38.0,6.5,-9999.0,'11133222,11111222,99999999' 
ADCP,ioos:station:wmo:42373:1,2009-03-02T11:31:00Z,27.3540,-94.6250,79.0,16.0,6.2,-9999.0,'11133222,11111222,99999999' 
ADCP,ioos:station:wmo:42373:1,2009-03-02T11:51:00Z,27.3540,-94.6250,79.0,13.0,6.5,-9999.0,'11133222,11111222,99999999' 
ADCP,ioos:station:wmo:42373:1,2009-03-02T12:11:00Z,27.3540,-94.6250,79.0,27.0,7.6,-9999.0,'11133222,11111222,99999999' 
ADCP,ioos:station:wmo:42373:1,2009-03-02T12:31:00Z,27.3540,-94.6250,79.0,9.0,6.5,-9999.0,'11133222,11111222,99999999' 
ADCP,ioos:station:wmo:42373:1,2009-03-02T12:51:00Z,27.3540,-94.6250,79.0,20.0,7.3,-9999.0,'11133222,11111222,99999999' 
ADCP,ioos:station:wmo:42373:1,2009-03-02T13:11:00Z,27.3540,-94.6250,79.0,348.0,7.4,-9999.0,'11133222,11111222,99999999' 
ADCP,ioos:station:wmo:42373:1,2009-03-02T13:31:00Z,27.3540,-94.6250,79.0,18.0,8.0,-9999.0,'11133222,11111222,99999999' 
ADCP,ioos:station:wmo:42373:1,2009-03-02T13:51:00Z,27.3540,-94.6250,79.0,25.0,10.1,-9999.0,'11111222,11111222,99999999' 
ADCP,ioos:station:wmo:42373:1,2009-03-02T14:11:00Z,27.3540,-94.6250,79.0,26.0,8.3,-9999.0,'11133222,11111222,99999999' 
ADCP,ioos:station:wmo:42373:1,2009-03-02T14:31:00Z,27.3540,-94.6250,79.0,30.0,9.2,-9999.0,'11133222,11111222,99999999' 
ADCP,ioos:station:wmo:42373:1,2009-03-02T14:51:00Z,27.3540,-94.6250,79.0,27.0,9.8,-9999.0,'11133222,11111222,99999999' 
ADCP,ioos:station:wmo:42373:1,2009-03-02T15:11:00Z,27.3540,-94.6250,79.0,31.0,11.1,-9999.0,'11111222,11111222,99999999' 
ADCP,ioos:station:wmo:42373:1,2009-03-02T15:31:00Z,27.3540,-94.6250,79.0,12.0,10.1,-9999.0,'11111222,11111222,99999999' 
ADCP,ioos:station:wmo:42373:1,2009-03-02T15:51:00Z,27.3540,-94.6250,79.0,36.0,13.1,-9999.0,'11111222,11111222,99999999' 
ADCP,ioos:station:wmo:42373:1,2009-03-02T16:11:00Z,27.3540,-94.6250,79.0,35.0,13.0,-9999.0,'11111222,11111222,99999999' 
ADCP,ioos:station:wmo:42373:1,2009-03-02T16:31:00Z,27.3540,-94.6250,79.0,32.0,13.0,-9999.0,'11111222,11111222,99999999' 
ADCP,ioos:station:wmo:42373:1,2009-03-02T16:51:00Z,27.3540,-94.6250,79.0,30.0,12.7,-9999.0,'11111222,11111222,99999999' 
ADCP,ioos:station:wmo:42373:1,2009-03-02T17:11:00Z,27.3540,-94.6250,79.0,25.0,11.8,-9999.0,'11111222,11111222,99999999' 
ADCP,ioos:station:wmo:42373:1,2009-03-02T17:31:00Z,27.3540,-94.6250,79.0,29.0,13.1,-9999.0,'11111222,11111222,99999999' 
ADCP,ioos:station:wmo:42373:1,2009-03-02T17:51:00Z,27.3540,-94.6250,79.0,33.0,13.7,-9999.0,'11111222,11111222,99999999' 
ADCP,ioos:station:wmo:42373:1,2009-03-02T18:11:00Z,27.3540,-94.6250,79.0,30.0,14.0,-9999.0,'11111222,11111222,99999999' 
ADCP,ioos:station:wmo:42373:1,2009-03-02T18:31:00Z,27.3540,-94.6250,79.0,28.0,13.6,-9999.0,'11111222,11111222,99999999' 
ADCP,ioos:station:wmo:42373:1,2009-03-02T18:51:00Z,27.3540,-94.6250,79.0,32.0,15.1,-9999.0,'11111222,11111222,99999999' 
ADCP,ioos:station:wmo:42373:1,2009-03-02T19:11:00Z,27.3540,-94.6250,79.0,34.0,15.6,-9999.0,'11111222,11111222,99999999' 
ADCP,ioos:station:wmo:42373:1,2009-03-02T19:31:00Z,27.3540,-94.6250,79.0,31.0,15.3,-9999.0,'11111222,11111222,99999999' 
ADCP,ioos:station:wmo:42373:1,2009-03-02T19:51:00Z,27.3540,-94.6250,79.0,37.0,17.2,-9999.0,'11111222,11111222,99999999' 
ADCP,ioos:station:wmo:42373:1,2009-03-02T20:11:00Z,27.3540,-94.6250,79.0,41.0,18.3,-9999.0,'11111222,11111222,99999999' 
ADCP,ioos:station:wmo:42373:1,2009-03-02T20:31:00Z,27.3540,-94.6250,79.0,42.0,18.1,-9999.0,'11111222,11111222,99999999' 
ADCP,ioos:station:wmo:42373:1,2009-03-02T20:51:00Z,27.3540,-94.6250,79.0,41.0,18.0,-9999.0,'11111222,11111222,99999999' 
ADCP,ioos:station:wmo:42373:1,2009-03-02T21:11:00Z,27.3540,-94.6250,79.0,42.0,18.3,-9999.0,'11111222,11111222,99999999' 
ADCP,ioos:station:wmo:42373:1,2009-03-02T21:31:00Z,27.3540,-94.6250,79.0,42.0,17.5,-9999.0,'11111222,11111222,99999999' 
ADCP,ioos:station:wmo:42373:1,2009-03-02T21:51:00Z,27.3540,-94.6250,79.0,43.0,18.1,-9999.0,'11111222,11111222,99999999' 
ADCP,ioos:station:wmo:42373:1,2009-03-02T22:11:00Z,27.3540,-94.6250,79.0,44.0,19.0,-9999.0,'11111222,11111222,99999999' 
ADCP,ioos:station:wmo:42373:1,2009-03-02T22:31:00Z,27.3540,-94.6250,79.0,49.0,19.0,-9999.0,'11111222,11111222,99999999' 
ADCP,ioos:station:wmo:42373:1,2009-03-02T22:51:00Z,27.3540,-94.6250,79.0,47.0,17.7,-9999.0,'11111222,11111222,99999999' 
ADCP,ioos:station:wmo:42373:1,2009-03-02T23:11:00Z,27.3540,-94.6250,79.0,49.0,18.1,-9999.0,'11111222,11111222,99999999' 
ADCP,ioos:station:wmo:42373:1,2009-03-02T23:31:00Z,27.3540,-94.6250,79.0,59.0,18.5,-9999.0,'11111222,11111222,99999999' 
ADCP,ioos:station:wmo:42373:1,2009-03-02T23:51:00Z,27.3540,-94.6250,79.0,68.0,15.7,-9999.0,'11111222,11111222,99999999' 
ADCP,ioos:station:wmo:42373:1,2009-03-03T00:11:00Z,27.3540,-94.6250,79.0,78.0,14.1,-9999.0,'11111222,11111222,99999999' 
ADCP,ioos:station:wmo:42373:1,2009-03-03T00:31:00Z,27.3540,-94.6250,79.0,82.0,12.4,-9999.0,'11111222,11111222,99999999' 
ADCP,ioos:station:wmo:42373:1,2009-03-03T00:51:00Z,27.3540,-94.6250,79.0,89.0,12.7,-9999.0,'11111222,11111222,99999999' 
ADCP,ioos:station:wmo:42373:1,2009-03-03T01:11:00Z,27.3540,-94.6250,79.0,95.0,12.2,-9999.0,'11111222,11111222,99999999' 
ADCP,ioos:station:wmo:42373:1,2009-03-03T01:31:00Z,27.3540,-94.6250,79.0,105.0,12.3,-9999.0,'11111222,11111222,99999999' 
ADCP,ioos:station:wmo:42373:1,2009-03-03T01:51:00Z,27.3540,-94.6250,79.0,112.0,11.7,-9999.0,'11111222,11111222,99999999' 
ADCP,ioos:station:wmo:42373:1,2009-03-03T02:11:00Z,27.3540,-94.6250,79.0,116.0,11.4,-9999.0,'11111222,11111222,99999999' 
ADCP,ioos:station:wmo:42373:1,2009-03-03T02:31:00Z,27.3540,-94.6250,79.0,115.0,11.1,-9999.0,'11111222,11111222,99999999' 
ADCP,ioos:station:wmo:42373:1,2009-03-03T02:51:00Z,27.3540,-94.6250,79.0,116.0,10.5,-9999.0,'11111222,11111222,99999999' 
ADCP,ioos:station:wmo:42373:1,2009-03-03T03:11:00Z,27.3540,-94.6250,79.0,117.0,10.1,-9999.0,'11111222,11111222,99999999' 
ADCP,ioos:station:wmo:42373:1,2009-03-03T03:31:00Z,27.3540,-94.6250,79.0,118.0,9.8,-9999.0,'11133222,11111222,99999999' 
ADCP,ioos:station:wmo:42373:1,2009-03-03T03:51:00Z,27.3540,-94.6250,79.0,117.0,9.6,-9999.0,'11133222,11111222,99999999' 
ADCP,ioos:station:wmo:42373:1,2009-03-03T04:11:00Z,27.3540,-94.6250,79.0,120.0,8.7,-9999.0,'11133222,11111222,99999999' 
ADCP,ioos:station:wmo:42373:1,2009-03-03T04:31:00Z,27.3540,-94.6250,79.0,122.0,7.9,-9999.0,'11133222,11111222,99999999' 
ADCP,ioos:station:wmo:42373:1,2009-03-03T04:51:00Z,27.3540,-94.6250,79.0,126.0,6.7,-9999.0,'11133222,11111222,99999999' 
ADCP,ioos:station:wmo:42373:1,2009-03-03T05:11:00Z,27.3540,-94.6250,79.0,119.0,6.5,-9999.0,'11133222,11111222,99999999' 
ADCP,ioos:station:wmo:42373:1,2009-03-03T05:31:00Z,27.3540,-94.6250,79.0,115.0,6.1,-9999.0,'11133222,11111222,99999999' 
ADCP,ioos:station:wmo:42373:1,2009-03-03T05:51:00Z,27.3540,-94.6250,79.0,112.0,5.3,-9999.0,'11133222,11111222,99999999' 
ADCP,ioos:station:wmo:42373:1,2009-03-03T06:11:00Z,27.3540,-94.6250,79.0,112.0,5.1,-9999.0,'11133222,11111222,99999999' 
ADCP,ioos:station:wmo:42373:1,2009-03-03T06:31:00Z,27.3540,-94.6250,79.0,96.0,4.6,-9999.0,'11133222,11111222,99999999' 
ADCP,ioos:station:wmo:42373:1,2009-03-03T06:51:00Z,27.3540,-94.6250,79.0,90.0,4.8,-9999.0,'11133222,11111222,99999999' 
ADCP,ioos:station:wmo:42373:1,2009-03-03T07:11:00Z,27.3540,-94.6250,79.0,70.0,4.4,-9999.0,'11133222,11111222,99999999' 
ADCP,ioos:station:wmo:42373:1,2009-03-03T07:31:00Z,27.3540,-94.6250,79.0,53.0,4.1,-9999.0,'11133222,11111222,99999999' 
ADCP,ioos:station:wmo:42373:1,2009-03-03T07:51:00Z,27.3540,-94.6250,79.0,32.0,4.4,-9999.0,'11133222,11111222,99999999' 
ADCP,ioos:station:wmo:42373:1,2009-03-03T08:11:00Z,27.3540,-94.6250,79.0,38.0,4.4,-9999.0,'11133222,11111222,99999999' 
ADCP,ioos:station:wmo:42373:1,2009-03-03T08:31:00Z,27.3540,-94.6250,79.0,17.0,3.0,-9999.0,'11133222,11111222,99999999' 
ADCP,ioos:station:wmo:42373:1,2009-03-03T08:51:00Z,27.3540,-94.6250,79.0,290.0,4.1,-9999.0,'11133222,11111222,99999999' 
ADCP,ioos:station:wmo:42373:1,2009-03-03T09:11:00Z,27.3540,-94.6250,79.0,274.0,6.0,-9999.0,'11133222,11111222,99999999' 
ADCP,ioos:station:wmo:42373:1,2009-03-03T09:31:00Z,27.3540,-94.6250,79.0,275.0,8.1,-9999.0,'11133222,11111222,99999999' 
ADCP,ioos:station:wmo:42373:1,2009-03-03T09:51:00Z,27.3540,-94.6250,79.0,282.0,8.8,-9999.0,'11133222,11111222,99999999' 
ADCP,ioos:station:wmo:42373:1,2009-03-03T10:11:00Z,27.3540,-94.6250,79.0,307.0,5.5,-9999.0,'11133222,11111222,99999999' 
ADCP,ioos:station:wmo:42373:1,2009-03-03T10:31:00Z,27.3540,-94.6250,79.0,316.0,5.7,-9999.0,'11133222,11111222,99999999' 
ADCP,ioos:station:wmo:42373:1,2009-03-03T10:51:00Z,27.3540,-94.6250,79.0,322.0,6.2,-9999.0,'11133222,11111222,99999999' 
ADCP,ioos:station:wmo:42373:1,2009-03-03T11:11:00Z,27.3540,-94.6250,79.0,347.0,6.9,-9999.0,'11133222,11111222,99999999' 
ADCP,ioos:station:wmo:42373:1,2009-03-03T11:31:00Z,27.3540,-94.6250,79.0,343.0,7.7,-9999.0,'11133222,11111222,99999999' 
ADCP,ioos:station:wmo:42373:1,2009-03-03T11:51:00Z,27.3540,-94.6250,79.0,330.0,9.1,-9999.0,'11133222,11111222,99999999' 
ADCP,ioos:station:wmo:42373:1,2009-03-03T12:11:00Z,27.3540,-94.6250,79.0,333.0,9.3,-9999.0,'11133222,11111222,99999999' 
ADCP,ioos:station:wmo:42373:1,2009-03-03T12:31:00Z,27.3540,-94.6250,79.0,331.0,10.1,-9999.0,'11111222,11111222,99999999' 
ADCP,ioos:station:wmo:42373:1,2009-03-03T12:51:00Z,27.3540,-94.6250,79.0,312.0,11.8,-9999.0,'11111222,11111222,99999999' 
ADCP,ioos:station:wmo:42373:1,2009-03-03T13:11:00Z,27.3540,-94.6250,79.0,331.0,11.6,-9999.0,'11111222,11111222,99999999' 
ADCP,ioos:station:wmo:42373:1,2009-03-03T13:31:00Z,27.3540,-94.6250,79.0,336.0,10.8,-9999.0,'11111222,11111222,99999999' 
ADCP,ioos:station:wmo:42373:1,2009-03-03T13:51:00Z,27.3540,-94.6250,79.0,330.0,12.0,-9999.0,'11111222,11111222,99999999' 
ADCP,ioos:station:wmo:42373:1,2009-03-03T14:11:00Z,27.3540,-94.6250,79.0,328.0,12.6,-9999.0,'11111222,11111222,99999999' 
ADCP,ioos:station:wmo:42373:1,2009-03-03T14:31:00Z,27.3540,-94.6250,79.0,337.0,12.5,-9999.0,'11111222,11111222,99999999' 
ADCP,ioos:station:wmo:42373:1,2009-03-03T14:51:00Z,27.3540,-94.6250,79.0,0.0,11.5,-9999.0,'11111222,11111222,99999999' 
ADCP,ioos:station:wmo:42373:1,2009-03-03T15:11:00Z,27.3540,-94.6250,79.0,20.0,13.9,-9999.0,'11111222,11111222,99999999' 
ADCP,ioos:station:wmo:42373:1,2009-03-03T15:31:00Z,27.3540,-94.6250,79.0,0.0,13.1,-9999.0,'11111222,11111222,99999999' 
ADCP,ioos:station:wmo:42373:1,2009-03-03T15:51:00Z,27.3540,-94.6250,79.0,11.0,12.5,-9999.0,'11111222,11111222,99999999' 
ADCP,ioos:station:wmo:42373:1,2009-03-03T16:11:00Z,27.3540,-94.6250,79.0,354.0,14.0,-9999.0,'11111222,11111222,99999999' 
ADCP,ioos:station:wmo:42373:1,2009-03-03T16:31:00Z,27.3540,-94.6250,79.0,354.0,12.5,-9999.0,'11111222,11111222,99999999' 
ADCP,ioos:station:wmo:42373:1,2009-03-03T16:51:00Z,27.3540,-94.6250,79.0,12.0,13.8,-9999.0,'11111222,11111222,99999999' 
ADCP,ioos:station:wmo:42373:1,2009-03-03T17:11:00Z,27.3540,-94.6250,79.0,27.0,15.2,-9999.0,'11111222,11111222,99999999' 
ADCP,ioos:station:wmo:42373:1,2009-03-03T17:31:00Z,27.3540,-94.6250,79.0,31.0,16.9,-9999.0,'11111222,11111222,99999999' 